Weather in Kazanlak

Bulgaria     42°37′09″N   25°23′35″E
temp.,
°C
wind,
m/s
gust,
m/s
humid.,
%
clouds,
%
prec.,
mm/h
press.,
hPa
HPBL,
m
14 august, sun
sun1400:00+19n227797 1.0 101033
03:00+18nw228259 1.9 100939
06:00+18nnw218055 0.6 100813
09:00+22nw116131 0.9 1008301
12:00+27se3339100 0.1 10071809
15:00+25nnw545080 0.6 10061278
18:00+22wnw3566100 1.4 1006451
21:00+17n2490100 3.7 1007144
15 august, mon
mon1500:00+16nnw3389100 1.5 100857
03:00+15nw3385100 1.5 100741
06:00+16nnw1183100 0.0 100714
09:00+20wnw116836 0.0 1008313
12:00+26w224557 0.3 10081691
15:00+29ene133674 0.5 10072279
18:00+27s224069 0.0 10061235
21:00+23wsw015139 0.0 100811
16 august, tue
tue1600:00+20nnw22601 0.0 100911
03:00+19nnw22620 0.0 100911
06:00+19nw22630 0.0 100911
09:00+25w224316 0.0 1010272
12:00+31ssw33296 0.0 10092700
15:00+32nw342599 0.0 10082856
18:00+32ne232685 0.0 10081970
21:00+21nnw347012 0.4 101171
17 august, wed
wed1700:00+19nw227591 1.3 101224
03:00+19nnw32710 1.4 101121
06:00+18nnw22685 0.0 101113
09:00+24nnw11470 0.0 1012193
12:00+32wnw23270 0.0 10112636
15:00+34nne232177 0.0 10093520
18:00+30nne352618 0.0 1010452
21:00+25nnw22383 0.0 101112
18 august, thu
thu1800:00+23nnw22422 0.0 101213
03:00+22nw22430 0.0 101112
06:00+21nw22460 0.0 101112
09:00+28nnw23330 0.0 1012320
12:00+34n55220 0.0 10112799
15:00+35n65200 0.0 10103046
18:00+34nne55210 0.0 10102222
21:00+27nne22350 0.0 101011